Weather in Povorot

Russia / Republic of Buryatia     50°55′23″N   106°37′16″E
temp.,
°C
wind,
m/s
gust,
m/s
humid.,
%
clouds,
%
prec.,
mm/h
press.,
hPa
HPBL,
m
15 may, sat
sat1523:00+7sse22350 0.0 101710
02:00+6sse22400 0.0 101713
05:00+3sse32460 0.0 101715
08:00+8s24340 0.0 1016374
11:00+14wnw232327 0.0 10141066
14:00+14nnw109405 0.0 10161707
17:00+15n673267 0.0 10151715
20:00+12nne35355 0.0 1015114
16 may, sun
sun1623:00+8s114292 0.0 101710
02:00+7sw11445 0.0 101710
05:00+6ssw11475 0.0 101610
08:00+11ssw35385 0.0 1015366
11:00+17sw683048 0.0 10111164
14:00+20nnw10102884 0.0 10102274
17:00+18nnw910395 0.0 10101744
20:00+14ne3455100 0.0 1010148
17 may, mon
mon1723:00+11sse1166100 0.0 101010
02:00+9sse11708 0.0 100710
05:00+8s2273100 0.0 100413
08:00+13ssw245616 0.0 1002429
11:00+14n5853100 0.0 1003529
14:00+12n111462100 0.0 1006966
17:00+11nnw91255100 0.1 10081317
20:00+9nnw6963100 0.1 1011933
18 may, tue
tue1823:00+7nw0068100 0.0 101310
02:00+5nw117567 0.0 101410
05:00+3nne118353 0.0 101310
08:00+8ssw1162100 0.0 1013461
11:00+12sw444896 0.0 10101608
14:00+10wsw246565 0.3 1010711
17:00+14wsw224924 0.0 10061363
20:00+12n115736 0.0 100512
19 may, wed
wed1923:00+9ene1164100 0.0 100410
02:00+8n2278100 0.6 100218
05:00+7nne3579100 0.3 1003141
08:00+9nne357435 0.3 1004567
11:00+13n555520 0.0 10031151
14:00+15n434570 0.0 10021244
17:00+16nne3343100 0.0 9991430
20:00+12nnw115994 0.4 100242